This is the latest recevied weather packets stored in our database for station/object WA9SDJ-13. If no packets are shown the sender has not sent any weather packets the latest 10 day(s).
| Time | Temp. | Humidity | Pressure | Rain* | Wind** | Luminosity | Snow |
|---|---|---|---|---|---|---|---|
| 1778353243 | 22.78° C | 66% | 1007.1 hPa | 0 mm | - | 916 W/m² | - |
| 1778353183 | 22.78° C | 66% | 1007 hPa | 0 mm | - | 918 W/m² | - |
| 1778353123 | 22.78° C | 67% | 1007.1 hPa | 0 mm | - | 920 W/m² | - |
| 1778353062 | 22.78° C | 65% | 1007.2 hPa | 0 mm | - | 920 W/m² | - |
| 1778353002 | 22.78° C | 66% | 1007.2 hPa | 0 mm | - | 921 W/m² | - |
| 1778352942 | 22.78° C | 65% | 1007.2 hPa | 0 mm | - | 923 W/m² | - |
| 1778352883 | 22.78° C | 69% | 1007.2 hPa | 0 mm | - | 925 W/m² | - |
| 1778352823 | 22.78° C | 69% | 1007.2 hPa | 0 mm | - | 928 W/m² | - |
| 1778352763 | 22.22° C | 70% | 1007.1 hPa | 0 mm | - | 928 W/m² | - |
| 1778352703 | 22.22° C | 70% | 1007.2 hPa | 0 mm | - | 928 W/m² | - |
| 1778352643 | 22.22° C | 70% | 1007.2 hPa | 0 mm | - | 928 W/m² | - |
| 1778352582 | 22.22° C | 69% | 1007.2 hPa | 0 mm | - | 930 W/m² | - |
| 1778352522 | 22.22° C | 67% | 1007.3 hPa | 0 mm | - | 930 W/m² | - |
| 1778352462 | 22.22° C | 68% | 1007.3 hPa | 0 mm | - | 928 W/m² | - |
| 1778352402 | 22.22° C | 68% | 1007.3 hPa | 0 mm | - | 925 W/m² | - |
| 1778352343 | 22.22° C | 68% | 1007.3 hPa | 0 mm | - | 927 W/m² | - |
| 1778352283 | 22.22° C | 67% | 1007.4 hPa | 0 mm | - | 927 W/m² | - |
| 1778352223 | 22.22° C | 67% | 1007.2 hPa | 0 mm | - | 930 W/m² | - |
| 1778352162 | 22.22° C | 68% | 1007.3 hPa | 0 mm | - | 932 W/m² | - |
| 1778352102 | 22.22° C | 66% | 1007.3 hPa | 0 mm | - | 932 W/m² | - |
| 1778352042 | 22.22° C | 68% | 1007.3 hPa | 0 mm | - | 934 W/m² | - |
| 1778351982 | 22.22° C | 68% | 1007.3 hPa | 0 mm | - | 934 W/m² | - |
| 1778351922 | 22.22° C | 68% | 1007.4 hPa | 0 mm | - | 937 W/m² | - |
| 1778351862 | 22.22° C | 68% | 1007.3 hPa | 0 mm | - | 934 W/m² | - |
| 1778351802 | 22.22° C | 68% | 1007.3 hPa | 0 mm | - | 934 W/m² | - |
* Rain latest hour (hover to see other rain measurements)
** Current wind speed in m/s (hover to see current wind gust speed)